Flag for China Weather past 2 weeks in Shantou, Guangdong, China

Now
61 °F

Mostly cloudy.


Feels Like: 61 °F
Forecast: 59 / 66 °F
Wind: 10 mph from East

Location: Shantou Airport

Current Time: Mar 4, 2015 at 3:48:52 AM

Latest Report: Mar 4, 2015 at 3:00 AM


Visibility: 4 mi

Pressure: 29.95 "Hg

Humidity: 94%

Dew point: 59 °F

Location of ShantouLocation

Historic Weather in Shantou — Graph

°F

Shantou temperature yesterday

Maximum temperature yesterday: 72 °F (at 1:00 PM)
Minimum temperature yesterday: 57 °F (at 6:00 AM)
Average temperature yesterday: 65 °F

Past Weeks' High & Low Weather Summary

 TemperatureHumidityPressure
High86 °F (Feb 26, 3:00 PM)100% (Feb 17, 2:00 AM)30.24 "Hg (Feb 17, 2:00 AM)
Low55 °F (Feb 18, 5:00 AM)44% (Mar 1, 2:00 PM)29.83 "Hg (Mar 3, 3:00 PM)
Average65 °F80%30.04 "Hg
* Reported Feb 17 2:00 AM — Mar 4 2:00 AM, Shantou, Weather by CustomWeather, © 2015

Note: Actual official high and low records may vary slightly from our data, if they occured in-between our weather recording intervals... More about our weather records

Advertising

Shantou weather history for previous 24 hours

 ConditionsComfort  
Time TempWeatherWind HumidityBarometerVisibility
2:00 AM
Wed, Mar 4
64 °FPassing clouds.10 mph83%29.95 "HgN/A
1:00 AM64 °FPassing clouds.6 mph83%29.95 "HgN/A
12:00 AM66 °FPassing clouds.6 mph83%29.95 "HgN/A
11:00 PM
Tue, Mar 3
66 °FPassing clouds.6 mph83%29.92 "Hg5 mi
10:00 PM66 °FFog.1 mph88%29.92 "Hg3 mi
9:00 PM68 °FFog.1 mph83%29.89 "Hg2 mi
8:00 PM70 °FFog.1 mph78%29.86 "Hg3 mi
7:00 PM68 °FFog.1 mph83%29.83 "Hg3 mi
6:00 PM72 °FPartly sunny.1 mph69%29.83 "Hg3 mi
5:00 PM72 °FHaze.1 mph65%29.83 "Hg3 mi
4:00 PM72 °FHaze.1 mph65%29.83 "Hg3 mi
3:00 PM72 °FHaze.1 mph65%29.83 "Hg3 mi
2:00 PM72 °FHaze.3 mph65%29.86 "Hg3 mi
1:00 PM72 °FHaze.3 mph65%29.89 "Hg3 mi
12:00 PM68 °FHaze.1 mph64%29.92 "Hg2 mi
11:00 AM64 °FFog.1 mph73%29.95 "Hg2 mi
10:00 AM63 °FFog.1 mph77%29.95 "Hg2 mi
9:00 AM63 °FFog.1 mph77%29.95 "Hg2 mi
8:00 AM61 °FFog.3 mph83%29.98 "Hg2 mi
7:00 AM57 °FFog.1 mph94%29.95 "Hg2 mi
6:00 AM57 °FFog.1 mph94%29.95 "Hg3 mi
5:00 AM59 °FFog.1 mph88%29.95 "Hg3 mi
4:00 AM61 °FFog.3 mph77%29.95 "Hg3 mi
3:00 AM61 °FPassing clouds.1 mph77%29.98 "Hg4 mi
Weather by CustomWeather, © 2015

See weather overviewHow to use our weather pages